Houston Hull, TX

9:44 PM CST on November 19, 2019 (GMT -0600)
Sugar Land Municipal-Hull

Weather History for KSGR - September, 2019

Change the Weather History Date:

Friday, September 20, 2019

  Actual Average Record
Temperature  
Mean Temperature 84 °F -  
Max Temperature 91 °F 87 °F 98 °F (1999)
Min Temperature 77 °F 68 °F 54 °F (1981)
Cooling Degree Days 18    
Growing Degree Days 34 (Base 50)    
Moisture  
Dew Point 77 °F    
Average Humidity 87    
Maximum Humidity 100    
Minimum Humidity 65    
Precipitation  
Precipitation 0.00 in - - ()
Sea Level Pressure  
Sea Level Pressure 29.98 in    
Wind  
Wind Speed 7 mph (SE)    
Max Wind Speed 26 mph    
Max Gust Speed 38 mph    
Visibility 10 miles    
Events Rain    
Averages and records for this station are not official NWS values.
T = Trace of Precipitation, MM = Missing Value Source: NWS Daily Summary

Daily Weather History Graph

Daily Weather History Graph

Search for Another Location

Airport or City:

Astronomy

Sep. 20, 2019 Rise Set
Actual Time 7:09 AM CDT 7:21 PM CDT
Civil Twilight 6:46 AM CDT 7:45 PM CDT
Nautical Twilight 6:18 AM CDT 8:13 PM CDT
Astronomical Twilight 5:50 AM CDT 8:41 PM CDT
Moon 11:38 PM CDT 12:50 PM CDT
Length of Visible Light 12h 59m
Length of Day
12h 12m
Waning Gibbous, 65% of the Moon is Illuminated
Sep 20
Waning Gibbous
Sep 21
Last Quarter
Sep 28
New
Oct 5
First Quarter
Oct 13
Full

Hourly Weather History & Observations

Time (CDT) Temp. Heat Index Dew Point Humidity Pressure Visibility Wind Dir Wind Speed Gust Speed Precip Events Conditions
12:53 AM 79.0 °F - 77.0 °F 94% 29.93 in 10.0 mi SE 8.1 mph - N/A   Clear
1:53 AM 79.0 °F - 77.0 °F 94% 29.94 in 10.0 mi SE 4.6 mph - N/A   Clear
2:53 AM 79.0 °F - 77.0 °F 94% 29.93 in 10.0 mi SE 5.8 mph - N/A   Clear
3:53 AM 78.1 °F - 77.0 °F 96% 29.92 in 10.0 mi SE 3.5 mph - N/A   Clear
4:50 AM 78.8 °F - 78.8 °F 100% 29.93 in 10.0 mi East 3.5 mph - N/A   Mostly Cloudy
4:53 AM 79.0 °F - 78.1 °F 97% 29.94 in 10.0 mi ESE 3.5 mph - N/A   Mostly Cloudy
5:08 AM 79.0 °F - 78.1 °F 97% 29.93 in 10.0 mi Calm Calm - N/A   Scattered Clouds
5:53 AM 77.0 °F - 77.0 °F 100% 29.95 in 8.0 mi SE 3.5 mph - N/A   Clear
6:53 AM 79.0 °F - 79.0 °F 100% 29.96 in 10.0 mi SE 6.9 mph - N/A   Overcast
7:53 AM 80.1 °F 86.7 °F 79.0 °F 96% 29.97 in 10.0 mi Calm Calm - N/A   Partly Cloudy
8:53 AM 81.0 °F 89.9 °F 80.1 °F 97% 29.99 in 10.0 mi SE 9.2 mph - N/A   Partly Cloudy
9:53 AM 81.0 °F 86.2 °F 73.9 °F 79% 30.00 in 10.0 mi Calm Calm - N/A   Clear
10:53 AM 86.0 °F 98.3 °F 78.1 °F 77% 30.01 in 10.0 mi South 9.2 mph - N/A   Partly Cloudy
11:53 AM 87.1 °F 99.8 °F 78.1 °F 74% 30.00 in 10.0 mi SSE 13.8 mph - N/A   Mostly Cloudy
12:53 PM 89.1 °F 101.4 °F 77.0 °F 67% 29.99 in 10.0 mi South 18.4 mph 24.2 mph 0.00 in   Mostly Cloudy
1:53 PM 90.0 °F 102.5 °F 77.0 °F 65% 29.99 in 10.0 mi SE 12.7 mph 23.0 mph 0.00 in   Partly Cloudy
2:53 PM 84.9 °F 92.1 °F 73.9 °F 69% 29.98 in 10.0 mi SSE 26.5 mph 38.0 mph N/A   Mostly Cloudy
3:53 PM 79.0 °F - 73.0 °F 82% 29.99 in 10.0 mi SSE 8.1 mph - 0.00 in Rain Light Rain
4:53 PM 81.0 °F 88.6 °F 78.1 °F 91% 29.98 in 10.0 mi SE 6.9 mph - 0.00 in Rain Light Rain
5:53 PM 84.9 °F 98.9 °F 80.1 °F 85% 29.98 in 10.0 mi ESE 5.8 mph - 0.00 in   Mostly Cloudy
6:53 PM 82.0 °F 87.9 °F 73.9 °F 76% 29.99 in 10.0 mi ESE 10.4 mph - N/A   Partly Cloudy
7:53 PM 80.1 °F 85.1 °F 75.0 °F 85% 30.00 in 10.0 mi ESE 9.2 mph - N/A   Clear
8:53 PM 80.1 °F 85.4 °F 75.9 °F 87% 30.00 in 10.0 mi East 5.8 mph - N/A   Clear
9:19 PM 80.1 °F 85.4 °F 75.9 °F 87% 30.00 in 10.0 mi East 6.9 mph - N/A   Mostly Cloudy
9:45 PM 80.1 °F 85.8 °F 77.0 °F 90% 30.01 in 10.0 mi ESE 8.1 mph - N/A   Scattered Clouds
9:53 PM 80.1 °F 85.8 °F 77.0 °F 90% 30.02 in 10.0 mi ESE 6.9 mph - N/A   Partly Cloudy
10:53 PM 80.1 °F 85.8 °F 77.0 °F 90% 30.02 in 10.0 mi SE 9.2 mph - N/A   Clear